This is the latest recevied weather packets stored in our database for station/object KO4LCK. If no packets are shown the sender has not sent any weather packets the latest 10 day(s).
| Time | Temp. | Humidity | Pressure | Rain* | Wind** | Luminosity | Snow |
|---|---|---|---|---|---|---|---|
| 1777041470 | 23.33° C | 59% | 1015.3 hPa | 0 mm | - | 503 W/m² | - |
| 1777041167 | 22.78° C | 60% | 1015.3 hPa | 0 mm | - | 491 W/m² | - |
| 1777040864 | 22.78° C | 60% | 1015.3 hPa | 0 mm | - | 477 W/m² | - |
| 1777040559 | 22.22° C | 64% | 1015.3 hPa | 0 mm | - | 465 W/m² | - |
| 1777040254 | 21.67° C | 62% | 1015.4 hPa | 0 mm | - | 453 W/m² | - |
| 1777039954 | 21.67° C | 63% | 1015.3 hPa | 0 mm | - | 440 W/m² | - |
| 1777039650 | 21.11° C | 67% | 1015.4 hPa | 0 mm | - | 425 W/m² | - |
| 1777039345 | 20.56° C | 68% | 1015.6 hPa | 0 mm | - | 391 W/m² | - |
| 1777039040 | 20.56° C | 71% | 1015.5 hPa | 0 mm | - | 420 W/m² | - |
| 1777038736 | 20.56° C | 68% | 1015.4 hPa | 0 mm | - | 215 W/m² | - |
| 1777038432 | 20° C | 69% | 1015.3 hPa | 0 mm | - | 264 W/m² | - |
| 1777038127 | 20° C | 71% | 1015.5 hPa | 0 mm | - | 217 W/m² | - |
| 1777037822 | 19.44° C | 72% | 1015.5 hPa | 0 mm | - | 198 W/m² | - |
| 1777037518 | 18.89° C | 72% | 1015.5 hPa | 0 mm | - | 384 W/m² | - |
| 1777037215 | 18.89° C | 73% | 1015.6 hPa | 0 mm | - | 360 W/m² | - |
| 1777036912 | 17.78° C | 75% | 1015.5 hPa | 0 mm | - | 344 W/m² | - |
| 1777036610 | 17.78° C | 75% | 1015.4 hPa | 0 mm | - | 213 W/m² | - |
| 1777036309 | 17.22° C | 78% | 1015.7 hPa | 0 mm | - | 280 W/m² | - |
| 1777036006 | 16.67° C | 79% | 1015.6 hPa | 0 mm | - | 137 W/m² | - |
| 1777035705 | 16.11° C | 82% | 1015.7 hPa | 0 mm | - | 136 W/m² | - |
| 1777035401 | 15.56° C | 84% | 1015.8 hPa | 0 mm | - | 152 W/m² | - |
| 1777035097 | 15° C | 88% | 1015.7 hPa | 0 mm | - | 160 W/m² | - |
| 1777034794 | 14.44° C | 90% | 1015.7 hPa | 0 mm | - | 127 W/m² | - |
| 1777034491 | 13.89° C | 92% | 1015.5 hPa | 0 mm | - | 89 W/m² | - |
| 1777034188 | 13.89° C | 94% | 1015.4 hPa | 0 mm | - | 105 W/m² | - |
* Rain latest hour (hover to see other rain measurements)
** Current wind speed in m/s (hover to see current wind gust speed)